Stations météo

réclame
Mon MeteoGroup
La Molina, Espagne (8117): Température de l'air & dewpoint: 13.08.2018 17:00:00 - 19.08.2018 17:00:00 (CEST)La Molina, Espagne (8117): Vitesse du vent & gusts: 13.08.2018 17:00:00 - 19.08.2018 17:00:00 (CEST)La Molina, Espagne (8117): Direction du vent: 13.08.2018 17:00:00 - 19.08.2018 17:00:00 (CEST)La Molina, Espagne (8117): visibility: 13.08.2018 17:00:00 - 19.08.2018 17:00:00 (CEST)La Molina, Espagne (8117): Ensoleillement: 13.08.2018 17:00:00 - 19.08.2018 17:00:00 (CEST)La Molina, Espagne (8117): Quantités de précipitations: 13.08.2018 17:00:00 - 19.08.2018 17:00:00 (CEST)
Date & Time tt [°C] td [°C] ff [km/h] ff [knt] fx [km/h] fx [knt] dd vv [km] sd [min] rr [mm]
19.08.2018 17:00:00 - - - - - - - - - -
19.08.2018 16:00:00 - - - - - - - - - -
19.08.2018 15:00:00 - - - - - - - - - -
19.08.2018 14:00:00 - - - - - - - - - -
19.08.2018 13:00:00 - - - - - - - - - -
19.08.2018 12:00:00 - - - - - - - - - -
19.08.2018 11:00:00 - - - - - - - - - -
19.08.2018 10:00:00 - - - - - - - - - -
19.08.2018 09:00:00 - - - - - - - - - -
19.08.2018 08:00:00 - - - - - - - - - -
19.08.2018 07:00:00 - - - - - - - - - -
19.08.2018 06:00:00 - - - - - - - - - -
19.08.2018 05:00:00 - - - - - - - - - -
19.08.2018 04:00:00 - - - - - - - - - -
19.08.2018 03:00:00 - - - - - - - - - -
19.08.2018 02:00:00 - - - - - - - - - -
19.08.2018 01:00:00 - - - - - - - - - -
19.08.2018 00:00:00 - - - - - - - - - -
18.08.2018 23:00:00 - - - - - - - - - -
18.08.2018 22:00:00 - - - - - - - - - -
18.08.2018 21:00:00 - - - - - - - - - -
18.08.2018 20:00:00 - - - - - - - - - -
18.08.2018 19:00:00 - - - - - - - - - -
18.08.2018 18:00:00 - - - - - - - - - -
18.08.2018 17:00:00 - - - - - - - - - -
18.08.2018 16:00:00 19,4 10,4 2 1 - - NNW 20 58 0,0
18.08.2018 15:00:00 17,4 8,8 4 2 - - N 20 53 0,0
18.08.2018 14:00:00 17,0 7,9 2 1 - - N 20 55 -
18.08.2018 13:00:00 15,6 9,3 5 3 - - NNW 20 49 0,0
18.08.2018 12:00:00 15,2 9,1 - - - - NNW 20 52 0,0
18.08.2018 11:00:00 12,8 7,3 4 2 - - NW 20 17 0,0
18.08.2018 10:00:00 13,3 8,4 4 2 - - NNW 20 60 0,0
18.08.2018 09:00:00 11,0 8,8 - - - - - 20 25 0,0
18.08.2018 08:00:00 8,0 7,4 0 0 - - N 20 0 -
18.08.2018 07:00:00 7,9 7,3 0 0 - - N 20 0 0,0
18.08.2018 06:00:00 8,5 7,9 - - - - - 20 0 0,0
18.08.2018 05:00:00 8,8 8,2 0 0 - - N 20 0 0,2
18.08.2018 04:00:00 9,4 8,6 0 0 - - N 13 0 0,4
18.08.2018 03:00:00 9,5 8,7 - - - - S 20 0 0,0
18.08.2018 02:00:00 9,2 8,4 - - - - - 20 0 -
18.08.2018 01:00:00 10,0 9,4 - - - - - 20 0 0,0
18.08.2018 00:00:00 9,6 9,0 0 0 - - N 20 0 0,0
17.08.2018 23:00:00 9,8 8,9 0 0 - - N 20 0 0,0
17.08.2018 22:00:00 10,3 9,2 0 0 - - N 20 0 0,0
17.08.2018 21:00:00 10,3 9,4 0 0 - - N 20 0 0,0
17.08.2018 20:00:00 10,7 9,9 0 0 - - N 20 7 -
17.08.2018 19:00:00 9,5 8,9 2 1 - - NNE 8 0 0,8
17.08.2018 18:00:00 9,8 8,9 0 0 - - N 6 0 5,8
17.08.2018 17:00:00 10,7 10,1 0 0 - - N 1,5 0 9,0
17.08.2018 16:00:00 11,6 10,7 0 0 - - N 2,6 0 15,8
17.08.2018 15:00:00 16,0 12,0 0 0 - - N 20 9 0,0
17.08.2018 14:00:00 15,0 13,1 3 2 - - S 20 0 -
17.08.2018 13:00:00 14,1 12,3 5 3 11 6 WNW 20 0 0,0
17.08.2018 12:00:00 14,3 12,8 0 0 - - NW 14 0 2,0
17.08.2018 11:00:00 15,5 10,5 0 0 - - N 20 22 0,0
17.08.2018 10:00:00 14,2 11,0 - - - - WNW 20 40 0,0
17.08.2018 09:00:00 12,5 10,9 0 0 - - N 20 0 0,0
17.08.2018 08:00:00 11,5 10,8 0 0 - - SE 20 0 -
17.08.2018 07:00:00 10,6 9,8 0 0 - - N 20 0 0,0
17.08.2018 06:00:00 10,1 9,3 0 0 - - N 20 0 0,0
17.08.2018 05:00:00 10,1 8,9 0 0 - - N 20 0 0,0
17.08.2018 04:00:00 11,1 10,0 0 0 - - N 20 0 1,0
17.08.2018 03:00:00 12,4 9,1 0 0 - - N 3,0 0 1,8
17.08.2018 02:00:00 12,2 11,4 0 0 - - N 20 0 -
17.08.2018 01:00:00 12,3 11,4 0 0 - - N 20 0 0,0
17.08.2018 00:00:00 12,0 10,6 0 0 - - N 20 0 0,0
16.08.2018 23:00:00 11,9 10,5 0 0 - - N 20 0 0,0
16.08.2018 22:00:00 13,9 8,1 0 0 - - N 11 0 2,2
16.08.2018 21:00:00 13,6 12,3 0 0 - - N 12 0 0,8
16.08.2018 20:00:00 - - - - - - - - - -
16.08.2018 19:00:00 13,9 12,4 1 1 - - N 3,5 0 3,4
16.08.2018 18:00:00 16,6 11,7 0 0 - - N 19 6 0,0
16.08.2018 17:00:00 18,8 13,2 0 0 - - N 20 30 0,0
16.08.2018 16:00:00 21,0 12,9 0 0 - - N 20 44 0,0
16.08.2018 15:00:00 21,4 12,3 0 0 - - N 20 59 0,0
16.08.2018 14:00:00 20,7 11,6 0 0 13 7 N 20 53 -
16.08.2018 13:00:00 18,6 12,8 6 3 13 7 N 20 55 0,0
16.08.2018 12:00:00 17,4 13,4 5 3 11 6 N 20 60 0,0
16.08.2018 11:00:00 15,9 11,9 5 3 8 4 NW 20 53 0,0
16.08.2018 10:00:00 14,6 11,9 5 3 8 4 NNW 17 53 0,0
16.08.2018 09:00:00 13,5 11,2 0 0 - - N 20 24 0,0
16.08.2018 08:00:00 11,1 10,3 0 0 - - N 18 0 -
16.08.2018 07:00:00 11,1 10,5 0 0 - - N 20 0 0,0
16.08.2018 06:00:00 10,6 9,7 0 0 - - N 20 0 0,0
16.08.2018 05:00:00 11,1 9,9 0 0 - - N 20 0 0,0
16.08.2018 04:00:00 11,2 10,3 0 0 - - N 20 0 0,0
16.08.2018 03:00:00 11,5 10,4 0 0 - - N 20 0 0,0
16.08.2018 02:00:00 11,8 10,4 0 0 - - N 20 0 -
16.08.2018 01:00:00 12,2 10,6 0 0 - - N 20 0 0,0
16.08.2018 00:00:00 12,5 10,7 0 0 - - N 20 0 0,0
15.08.2018 23:00:00 12,9 11,0 0 0 - - N 20 0 0,0
15.08.2018 22:00:00 14,5 11,1 2 1 - - E 20 0 0,0
15.08.2018 21:00:00 16,0 11,4 0 0 - - N 20 3 0,0
15.08.2018 20:00:00 18,3 11,6 0 0 - - N 20 46 -
15.08.2018 19:00:00 18,5 11,8 0 0 - - N 20 43 0,0
15.08.2018 18:00:00 20,6 13,3 0 0 - - N 20 60 0,0
15.08.2018 17:00:00 21,3 12,2 0 0 - - N 20 60 0,0
15.08.2018 16:00:00 21,2 12,9 0 0 - - N 20 60 0,0
15.08.2018 15:00:00 21,0 11,6 0 0 - - N 20 60 0,0
15.08.2018 14:00:00 21,0 5,3 6 3 17 9 NNW 20 60 -
15.08.2018 13:00:00 20,2 3,8 1 1 - - WNW 20 60 0,0
15.08.2018 12:00:00 19,1 0,2 1 0 13 7 NNE 20 60 0,0
15.08.2018 11:00:00 16,9 1,7 8 4 13 7 NW 20 60 0,0
15.08.2018 10:00:00 15,5 5,7 3 2 - - S 20 60 0,0
15.08.2018 09:00:00 10,4 4,8 0 0 - - N 20 30 0,0
15.08.2018 08:00:00 7,6 3,3 0 0 - - N 20 0 -
15.08.2018 07:00:00 7,8 3,6 0 0 - - N 20 0 0,0
15.08.2018 06:00:00 7,0 4,1 0 0 - - N 20 0 0,0
15.08.2018 05:00:00 7,1 4,8 0 0 - - N 20 0 0,0
15.08.2018 04:00:00 8,0 5,1 0 0 - - N 20 0 0,0
15.08.2018 03:00:00 8,2 4,6 0 0 - - N 20 0 0,0
15.08.2018 02:00:00 9,1 4,5 0 0 - - N 20 0 -
15.08.2018 01:00:00 9,2 5,6 0 0 - - N 20 0 0,0
15.08.2018 00:00:00 10,0 6,0 0 0 - - N 20 0 0,0
14.08.2018 23:00:00 10,7 6,7 0 0 - - N 20 0 0,0
14.08.2018 22:00:00 12,1 8,0 0 0 - - N 20 0 0,0
14.08.2018 21:00:00 14,5 9,6 3 2 - - S 20 0 0,0
14.08.2018 20:00:00 16,6 11,6 4 2 10 5 N 20 17 -
14.08.2018 19:00:00 19,5 9,4 0 0 - - N 20 58 0,0
14.08.2018 18:00:00 18,9 12,6 0 0 - - N 20 44 0,0
14.08.2018 17:00:00 20,0 12,5 0 0 - - N 20 60 0,0
14.08.2018 16:00:00 20,5 10,9 0 0 16 9 N 20 60 0,0
14.08.2018 15:00:00 20,4 11,1 6 4 16 9 NW 20 54 0,0
14.08.2018 14:00:00 18,7 11,6 1 0 14 8 WNW 20 45 -
14.08.2018 13:00:00 18,6 12,5 6 3 16 9 NW 20 58 0,0
14.08.2018 12:00:00 17,0 11,9 8 5 15 8 NNW 20 60 0,0
14.08.2018 11:00:00 15,2 11,6 3 2 10 6 N 20 60 0,0
14.08.2018 10:00:00 14,8 11,6 2 1 - - N 20 44 0,0
14.08.2018 09:00:00 14,1 12,0 - - - - - 18 29 0,0
14.08.2018 08:00:00 11,5 10,4 0 0 - - N 20 0 -
14.08.2018 07:00:00 11,4 9,8 0 0 - - N 20 0 0,0
14.08.2018 06:00:00 12,1 10,8 0 0 - - N 20 0 0,0
14.08.2018 05:00:00 12,2 10,6 2 1 - - NW 20 0 0,0
14.08.2018 04:00:00 13,1 11,2 0 0 - - N 20 0 0,0
14.08.2018 03:00:00 11,6 10,7 0 0 - - N 20 0 0,0
14.08.2018 02:00:00 12,3 11,2 0 0 - - N 20 0 -
14.08.2018 01:00:00 12,9 11,8 0 0 - - N 20 0 0,0
14.08.2018 00:00:00 13,4 12,1 0 0 - - N 20 0 0,0
13.08.2018 23:00:00 14,0 12,7 1 0 - - WNW 17 0 0,2
13.08.2018 22:00:00 14,2 12,5 1 1 - - NW 19 0 0,0
13.08.2018 21:00:00 15,4 13,5 5 3 - - NW 7 0 0,2
13.08.2018 20:00:00 17,9 11,9 6 4 - - NNW 19 9 -
13.08.2018 19:00:00 19,7 13,0 0 0 - - N 20 30 0,0
13.08.2018 18:00:00 21,0 12,7 0 0 - - N 20 59 0,0
13.08.2018 17:00:00 21,5 11,8 0 0 - - N 20 56 0,0

tt = Température de l'air
td = dewpoint
ff = Vitesse du vent
fx = gusts
dd = Direction du vent
vv = visibility
sd = Ensoleillement
rr = Quantités de précipitations

stations d'obs. à proximité